Weather History for Milwaukee Timmerman, WI

Change the Weather History Date:

Wednesday, April 10, 2013

  Actual Average Record
Temperature  
Mean Temperature 34 °F -  
Max Temperature 37 °F 54 °F 83 °F (1977)
Min Temperature 32 °F 33 °F 17 °F (1960)
Degree Days  
Heating Degree Days 30    
Moisture  
Dew Point 33 °F    
Average Humidity 94    
Maximum Humidity 100    
Minimum Humidity 93    
Precipitation  
Precipitation 0.66 in - - ()
Sea Level Pressure  
Sea Level Pressure 29.98 in    
Wind  
Wind Speed 17 mph (NE)    
Max Wind Speed 25 mph    
Max Gust Speed 37 mph    
Visibility 8 miles    
Events Rain , Snow    
Averages and records for this station are not official NWS values.
T = Trace of Precipitation, MM = Missing Value Source: NWS Daily Summary

Daily Weather History Graph

Daily Weather History Graph

Search for Another Location

Airport:

Trip Planner

Search our weather history database for the weather conditions in past years. The results will help you decide how hot, cold, wet, or windy it might be!

Date:

Astronomy

Apr. 10, 2013 Rise Set
Actual Time 6:18 AM CDT 7:29 PM CDT
Civil Twilight 5:48 AM CDT 7:58 PM CDT
Nautical Twilight 5:13 AM CDT 8:33 PM CDT
Astronomical Twilight 4:37 AM CDT 9:10 PM CDT
Moon 6:13 AM CDT (4/10) 8:06 PM CDT (4/10)
Length of Visible Light 14h 09m
Length of Day
13h 11m
Waxing Crescent, 0% of the Moon is Illuminated
Apr 10
Waxing Crescent
Apr 18
First Quarter
Apr 25
Full
May 2
Last Quarter
May 9
New

Hourly Weather History & Observations

Time (CDT) Temp. Windchill Dew Point Humidity Pressure Visibility Wind Dir Wind Speed Gust Speed Precip Events Conditions
12:15 AM 35.6 °F 26.2 °F 33.8 °F 93% 30.01 in 10.0 mi NE 15.0 mph 26.5 mph N/A Rain Light Rain
12:35 AM 33.8 °F 22.8 °F 32.0 °F 93% 29.99 in 7.0 mi NE 18.4 mph 27.6 mph N/A   Drizzle
12:55 AM 33.8 °F 23.9 °F 32.0 °F 93% 30.01 in 7.0 mi NE 15.0 mph 27.6 mph 0.01 in Rain Light Rain
1:15 AM 33.8 °F 22.5 °F 32.0 °F 93% 30.02 in 10.0 mi NNE 19.6 mph 25.3 mph N/A   Drizzle
1:35 AM 33.8 °F 22.8 °F 32.0 °F 93% 30.00 in 7.0 mi NNE 18.4 mph 29.9 mph 0.01 in Rain Light Rain
1:55 AM 33.8 °F 22.5 °F 32.0 °F 93% 30.00 in 7.0 mi NNE 19.6 mph 28.8 mph 0.01 in Rain Light Rain
2:15 AM 32.0 °F 18.6 °F 32.0 °F 100% 30.00 in 4.0 mi NNE 25.3 mph 33.4 mph 0.04 in Snow Light Snow
2:35 AM 32.0 °F 19.2 °F 32.0 °F 100% 30.00 in 3.0 mi NNE 23.0 mph 28.8 mph 0.07 in Rain Light Rain
2:55 AM 32.0 °F 20.1 °F 32.0 °F 100% 29.96 in 10.0 mi NE 19.6 mph 33.4 mph 0.08 in   Light Drizzle
3:15 AM 32.0 °F 19.8 °F 32.0 °F 100% 29.98 in 10.0 mi NNE 20.7 mph 35.7 mph N/A Rain Light Rain
3:35 AM 33.8 °F 21.6 °F 32.0 °F 93% 29.99 in 10.0 mi NNE 23.0 mph 32.2 mph N/A   Overcast
3:55 AM 33.8 °F 22.5 °F 32.0 °F 93% 29.98 in 7.0 mi NE 19.6 mph 36.8 mph N/A Rain Light Rain
4:15 AM 33.8 °F 22.8 °F 32.0 °F 93% 29.97 in 10.0 mi NE 18.4 mph 32.2 mph 0.01 in Rain Light Rain
4:35 AM 33.8 °F 23.2 °F 32.0 °F 93% 29.96 in 10.0 mi NE 17.3 mph 29.9 mph 0.01 in   Overcast
4:55 AM 33.8 °F 22.2 °F 32.0 °F 93% 29.96 in 7.0 mi NE 20.7 mph 33.4 mph 0.01 in   Overcast
5:15 AM 33.8 °F 23.2 °F 32.0 °F 93% 30.02 in 5.0 mi North 17.3 mph 29.9 mph N/A   Overcast
5:35 AM 33.8 °F 23.2 °F 32.0 °F 93% 30.06 in 4.0 mi North 17.3 mph 28.8 mph 0.04 in Rain Rain
5:55 AM 33.8 °F 24.3 °F 32.0 °F 93% 30.03 in 1.0 mi NE 13.8 mph 20.7 mph 0.31 in Snow Snow
6:15 AM 33.8 °F 25.3 °F 32.0 °F 93% 29.97 in 5.0 mi ENE 11.5 mph 20.7 mph 0.07 in Rain Light Rain
6:35 AM 33.8 °F 24.8 °F 32.0 °F 93% 29.95 in 7.0 mi East 12.7 mph 21.9 mph 0.10 in Rain Light Rain
6:45 AM 33.8 °F 23.2 °F 32.0 °F 93% 29.96 in 7.0 mi NE 17.3 mph 21.9 mph N/A Rain Rain
6:55 AM 33.8 °F 23.9 °F 32.0 °F 93% 29.98 in 10.0 mi NNE 15.0 mph 23.0 mph 0.11 in Rain Light Rain
7:45 AM 35.6 °F 27.1 °F 33.8 °F 93% 29.96 in 5.0 mi NE 12.7 mph 23.0 mph N/A Rain Rain
8:45 AM 35.6 °F 24.8 °F 33.8 °F 93% 29.89 in 7.0 mi NE 19.6 mph 26.5 mph N/A Rain Rain
9:45 AM 35.6 °F 26.2 °F 33.8 °F 93% 29.96 in 10.0 mi NE 15.0 mph 23.0 mph N/A   Overcast
10:45 AM 37.4 °F 28.5 °F 35.6 °F 93% 30.02 in 10.0 mi NNE 15.0 mph 23.0 mph N/A   Overcast
1:45 PM 35.6 °F 25.2 °F 33.8 °F 93% 30.00 in 10.0 mi NNE 18.4 mph 25.3 mph N/A   Overcast
2:45 PM 35.6 °F 26.6 °F 33.8 °F 93% 30.03 in 10.0 mi NNE 13.8 mph 23.0 mph N/A   Light Drizzle
3:45 PM 35.6 °F 25.9 °F 33.8 °F 93% 30.03 in 10.0 mi NNE 16.1 mph 20.7 mph N/A Rain Light Rain
4:50 PM 35.6 °F 25.9 °F 33.8 °F 93% 29.96 in 10.0 mi NNE 16.1 mph 28.8 mph N/A   Light Drizzle
5:45 PM 35.6 °F 25.9 °F 33.8 °F 93% 29.96 in 10.0 mi NE 16.1 mph 28.8 mph N/A   Overcast
6:50 PM 35.6 °F 26.6 °F 33.8 °F 93% 29.97 in 10.0 mi NE 13.8 mph 23.0 mph N/A   Overcast
7:45 PM 35.6 °F 25.9 °F 33.8 °F 93% 29.92 in 10.0 mi NE 16.1 mph 23.0 mph N/A   Light Drizzle
8:45 PM 35.6 °F 25.2 °F 33.8 °F 93% 29.96 in 10.0 mi NNE 18.4 mph 24.2 mph N/A   Overcast
9:15 PM 35.6 °F 27.1 °F 33.8 °F 93% 29.99 in 10.0 mi NE 12.7 mph 20.7 mph N/A   Overcast
9:55 PM 35.6 °F 25.9 °F 33.8 °F 93% 29.96 in 10.0 mi NE 16.1 mph 20.7 mph N/A   Overcast
10:15 PM 35.6 °F 25.5 °F 33.8 °F 93% 29.94 in 10.0 mi NE 17.3 mph 32.2 mph N/A   Light Drizzle
10:35 PM 35.6 °F 26.6 °F 33.8 °F 93% 29.97 in 10.0 mi NE 13.8 mph 18.4 mph N/A   Drizzle
10:55 PM 35.6 °F 27.1 °F 33.8 °F 93% 29.95 in 5.0 mi NE 12.7 mph 24.2 mph 0.03 in Rain Rain
11:15 PM 35.6 °F 26.6 °F 33.8 °F 93% 29.95 in 4.0 mi NE 13.8 mph 24.2 mph 0.04 in Rain Rain
11:35 PM 35.6 °F 25.9 °F 33.8 °F 93% 29.95 in 5.0 mi NE 16.1 mph 21.9 mph 0.07 in Rain Rain
11:55 PM 35.6 °F 27.1 °F 33.8 °F 93% 29.95 in 5.0 mi NE 12.7 mph 19.6 mph 0.10 in Rain Light Rain